Location: Home
(42.5358°N, 72.7383°W)
Time: 18:22:42
(UTC-05:00)

A-11 Canister half - Pass Details

Date: 04 December 2021
Orbit: 1516 x 1684 km, 47.2° (Epoch: 18 January)

Event Time Altitude Azimuth Distance (km) Brightness Sun altitude
Rises 12:20:10 0° 295° (WNW) 4,886 11.5 24.5°
Reaches altitude 10° 12:23:18 10° 294° (WNW) 3,914 11.1 24.4°
Maximum altitude 12:33:20 74° 212° (SSW) 1,741 10.0 24.0°
Drops below altitude 10° 12:43:26 10° 130° (SE) 3,935 11.5 23.6°
Sets 12:46:35 0° 128° (SE) 4,914 11.9 23.4°
